CW1569 Weather Reports


Display with metric or nautical units.
time (UTC)temp
F
wind
direction
speed
MPH
gust
MPH
rain 1hr
in
rain 24hr
in
rain mn
in
humidity
%
barometer
mb
20260505153338 51 360 7.0 13.0 0.00 0.00 0.00 43 1005.5
20260505152826 51 360 7.0 11.0 0.00 0.00 0.00 43 1005.6
20260505152335 51 11 5.0 11.0 0.00 0.00 0.00 43 1005.6
20260505151840 51 360 5.0 11.0 0.00 0.00 0.00 44 1005.7
20260505151332 51 360 5.0 11.0 0.00 0.00 0.00 44 1005.7
20260505150821 51 360 5.0 12.0 0.00 0.00 0.00 45 1005.7
20260505150332 51 360 7.0 12.0 0.00 0.00 0.00 44 1005.6
20260505140331 50 360 2.0 11.0 0.00 0.00 0.00 47 1006.0
20260505124843 49 360 3.0 7.0 0.00 0.00 0.00 51 1005.6
20260505124354 49 27 4.0 7.0 0.00 0.00 0.00 50 1005.4
20260505123842 48 360 3.0 7.0 0.00 0.00 0.00 51 1005.3
20260505123358 48 360 4.0 8.0 0.00 0.00 0.00 51 1005.4
20260505122848 48 360 2.0 10.0 0.00 0.00 0.00 51 1005.5
20260505122338 48 360 3.0 10.0 0.00 0.00 0.00 51 1005.7
20260505121828 48 360 5.0 8.0 0.00 0.00 0.00 51 1005.7
20260505121339 48 11 2.0 8.0 0.00 0.00 0.00 50 1005.2
20260505120845 48 5 3.0 9.0 0.00 0.00 0.00 50 1005.5
20260505120355 48 360 6.0 9.0 0.00 0.00 0.00 50 1005.7
20260505115823 48 360 4.0 9.0 0.00 0.00 0.00 50 1005.8
20260505115332 48 360 4.0 9.0 0.00 0.00 0.00 51 1005.6
20260505114822 48 360 4.0 7.0 0.00 0.00 0.00 50 1005.4
20260505114331 48 360 5.0 7.0 0.00 0.00 0.00 51 1005.0
20260505113838 48 360 2.0 9.0 0.00 0.00 0.00 51 1004.9
20260505113328 48 16 3.0 9.0 0.00 0.00 0.00 50 1004.3
20260505112838 48 360 6.0 9.0 0.00 0.00 0.00 50 1004.2
20260505112328 48 360 3.0 8.0 0.00 0.00 0.00 51 1004.8
20260505111835 48 360 3.0 8.0 0.00 0.00 0.00 51 1003.6
20260505111328 48 360 4.0 8.0 0.00 0.00 0.00 51 1003.7
20260505110834 49 360 4.0 8.0 0.00 0.00 0.00 51 1003.7
20260505110344 49 32 3.0 6.0 0.00 0.00 0.00 52 1004.1
20260505101841 49 360 4.0 16.0 0.00 0.00 0.00 49 1003.6
20260505101347 49 17 9.0 12.0 0.00 0.00 0.00 49 1003.5
20260505100835 50 360 5.0 13.0 0.00 0.00 0.00 49 1003.2
20260505100325 50 360 4.0 16.0 0.00 0.00 0.00 49 1003.1
20260505095834 50 31 7.0 16.0 0.00 0.00 0.00 49 1002.9
20260505095340 50 360 7.0 11.0 0.00 0.00 0.00 50 1003.4
20260505094830 50 360 5.0 14.0 0.00 0.00 0.00 50 1003.3
20260505094341 50 360 5.0 14.0 0.00 0.00 0.00 50 1003.4
20260505093827 50 360 5.0 14.0 0.00 0.00 0.00 50 1003.1
20260505093336 50 360 7.0 14.0 0.00 0.00 0.00 50 1003.2
20260505092825 50 360 6.0 12.0 0.00 0.00 0.00 49 1003.1
20260505092337 51 360 6.0 14.0 0.00 0.00 0.00 50 1002.7
20260505091827 51 360 8.0 18.0 0.00 0.00 0.00 50 1003.2
20260505091338 51 360 7.0 18.0 0.00 0.00 0.00 51 1002.8
20260505090825 51 360 6.0 13.0 0.00 0.00 0.00 52 1002.5
20260505090336 51 360 4.0 16.0 0.00 0.00 0.00 52 1002.4
20260505085825 51 360 8.0 16.0 0.00 0.00 0.00 51 1002.5
20260505085400 51 360 7.0 12.0 0.00 0.00 0.00 51 1002.2
20260505084848 52 360 4.0 12.0 0.00 0.00 0.00 50 1002.4
20260505084401 52 360 6.0 12.0 0.00 0.00 0.00 50 1002.1
20260505083828 52 360 6.0 11.0 0.00 0.00 0.00 50 1001.7
20260505083333 52 360 6.0 14.0 0.00 0.00 0.00 49 1001.7
20260505082842 53 360 8.0 14.0 0.00 0.00 0.00 50 1001.7
20260505082350 53 360 4.0 12.0 0.00 0.00 0.00 51 1001.6
20260505081840 53 360 6.0 12.0 0.00 0.00 0.00 51 1001.4
20260505081331 54 360 4.0 11.0 0.00 0.00 0.00 52 1001.3
20260505080838 54 360 4.0 8.0 0.00 0.00 0.00 51 1001.2
20260505080325 54 360 3.0 12.0 0.00 0.00 0.00 50 1001.2
20260505075834 54 360 5.0 12.0 0.00 0.00 0.00 49 1000.9
20260505075325 55 360 6.0 12.0 0.00 0.00 0.00 49 1001.0
20260505074835 55 360 7.0 12.0 0.00 0.00 0.00 48 1000.8
20260505074344 55 360 3.0 12.0 0.00 0.00 0.00 48 1000.6
20260505073852 56 360 6.0 15.0 0.00 0.00 0.00 47 1000.4
20260505073339 56 360 7.0 17.0 0.00 0.00 0.00 47 1000.5
20260505072828 56 360 8.0 17.0 0.00 0.00 0.00 46 1000.5
20260505072338 57 360 7.0 13.0 0.00 0.00 0.00 46 1000.4
20260505071827 57 360 7.0 13.0 0.00 0.00 0.00 45 1000.0
20260505071337 57 360 5.0 17.0 0.00 0.00 0.00 45 1000.0
20260505070825 57 360 7.0 17.0 0.00 0.00 0.00 44 1000.2
20260505070335 58 360 8.0 14.0 0.00 0.00 0.00 44 1000.1
20260505065825 58 5 5.0 12.0 0.00 0.00 0.00 43 999.8
20260505065357 58 360 6.0 13.0 0.00 0.00 0.00 43 999.7
20260505064824 58 360 4.0 15.0 0.00 0.00 0.00 43 999.8
20260505064335 58 360 10.0 15.0 0.00 0.00 0.00 42 999.7
20260505063822 59 360 6.0 12.0 0.00 0.00 0.00 42 999.8
20260505063334 59 360 3.0 15.0 0.00 0.00 0.00 41 999.9
20260505062823 59 360 8.0 19.0 0.00 0.00 0.00 41 999.8
20260505062333 59 5 5.0 19.0 0.00 0.00 0.00 40 999.5
20260505061822 59 360 6.0 18.0 0.00 0.00 0.00 40 999.5
20260505061333 60 360 8.0 16.0 0.00 0.00 0.00 40 999.2
20260505060841 60 360 6.0 13.0 0.00 0.00 0.00 39 999.2
20260505060353 60 360 5.0 12.0 0.00 0.00 0.00 39 999.3
20260505055841 60 360 6.0 9.0 0.00 0.00 0.00 39 999.3
20260505055330 60 360 5.0 12.0 0.00 0.00 0.00 39 999.3
20260505054839 60 360 5.0 15.0 0.00 0.00 0.00 38 999.2
20260505054350 60 360 5.0 15.0 0.00 0.00 0.00 38 999.2
20260505053836 60 360 4.0 11.0 0.00 0.00 0.00 39 999.2
20260505053328 60 360 6.0 13.0 0.00 0.00 0.00 39 999.1
20260505052839 60 360 6.0 13.0 0.00 0.00 0.00 38 999.1
20260505052328 61 360 8.0 14.0 0.00 0.00 0.00 39 999.1
20260505051831 61 360 6.0 14.0 0.00 0.00 0.00 39 999.0
20260505051323 61 360 7.0 11.0 0.00 0.00 0.00 40 998.8
20260505050831 61 360 3.0 13.0 0.00 0.00 0.00 41 998.7
20260505050342 61 360 7.0 13.0 0.00 0.00 0.00 40 998.5
20260505041332 64 360 6.0 19.0 0.00 0.00 0.00 40 998.2
20260505040839 64 360 6.0 20.0 0.00 0.00 0.00 40 998.0
20260505040329 64 360 9.0 20.0 0.00 0.00 0.00 39 998.0
20260505035840 64 360 8.0 14.0 0.00 0.00 0.00 41 997.9
20260505035332 64 360 4.0 9.0 0.00 0.00 0.00 42 997.7
20260505034843 65 360 6.0 9.0 0.00 0.00 0.00 41 997.7
20260505034356 65 360 3.0 6.0 0.00 0.00 0.00 40 997.7
20260505033823 66 360 3.0 8.0 0.00 0.00 0.00 40 997.5
20260505033359 66 360 3.0 10.0 0.00 0.00 0.00 39 997.4
20260505032848 66 360 6.0 10.0 0.00 0.00 0.00 39 997.4
20260505032357 67 229 3.0 11.0 0.00 0.00 0.00 39 997.4
20260505031826 67 360 4.0 12.0 0.00 0.00 0.00 40 997.3
20260505031337 66 360 6.0 12.0 0.00 0.00 0.00 45 997.2
20260505030844 66 360 4.0 8.0 0.00 0.00 0.00 48 997.3
20260505030333 66 360 3.0 6.0 0.00 0.00 0.00 52 997.3
20260505025841 66 360 2.0 6.0 0.00 0.00 0.00 56 997.3
20260505025329 66 360 2.0 8.0 0.00 0.00 0.00 60 997.1
20260505024840 66 360 5.0 12.0 0.00 0.00 0.00 62 997.2
20260505024331 66 360 8.0 14.0 0.00 0.00 0.00 63 997.0
20260505023839 65 360 9.0 14.0 0.00 0.00 0.00 64 997.0
20260505023329 65 360 5.0 12.0 0.00 0.00 0.00 65 996.7
20260505022840 66 360 7.0 13.0 0.00 0.00 0.00 66 996.4
20260505022328 66 360 11.0 14.0 0.00 0.00 0.00 66 996.4
20260505021900 66 360 9.0 14.0 0.00 0.00 0.00 67 996.2
20260505021348 66 360 10.0 13.0 0.00 0.00 0.00 67 996.4
20260505020855 66 360 6.0 14.0 0.00 0.00 0.00 67 996.2
20260505020343 66 360 7.0 14.0 0.00 0.00 0.00 67 996.0
20260505015833 66 360 7.0 12.0 0.00 0.00 0.00 66 995.8
20260505015322 66 360 7.0 16.0 0.00 0.00 0.00 65 995.8
20260505014831 66 360 9.0 16.0 0.00 0.00 0.00 65 995.3
20260505014341 67 360 7.0 11.0 0.00 0.00 0.00 64 995.4
20260505013828 67 360 8.0 13.0 0.00 0.00 0.00 63 995.3
20260505013334 67 360 9.0 16.0 0.00 0.00 0.00 62 995.0
20260505012822 68 360 7.0 16.0 0.00 0.00 0.00 60 995.0
20260505012332 68 360 11.0 18.0 0.00 0.00 0.00 59 995.0
20260505011841 68 360 10.0 19.0 0.00 0.00 0.00 56 994.9
20260505011333 69 360 12.0 18.0 0.00 0.00 0.00 55 995.0
20260505010841 69 360 9.0 16.0 0.00 0.00 0.00 54 994.9
20260505010332 69 360 11.0 17.0 0.00 0.00 0.00 53 995.0
20260505005822 70 360 9.0 17.0 0.00 0.00 0.00 51 995.0
20260505005333 71 360 10.0 13.0 0.00 0.00 0.00 49 994.7
20260505004824 71 360 7.0 10.0 0.00 0.00 0.00 46 994.4
20260505004336 71 360 5.0 10.0 0.00 0.00 0.00 46 994.1
20260505003824 71 360 6.0 12.0 0.00 0.00 0.00 45 993.9
20260505003326 72 360 8.0 12.0 0.00 0.00 0.00 44 993.9
20260505002835 72 360 9.0 14.0 0.00 0.00 0.00 43 993.9
20260505002325 72 360 9.0 21.0 0.00 0.00 0.00 42 993.7
20260505001837 73 360 10.0 21.0 0.00 0.00 0.00 42 993.8
20260505001328 73 360 11.0 17.0 0.00 0.00 0.00 42 993.6
20260505000902 73 360 9.0 14.0 0.00 0.00 0.00 41 993.6
20260505000329 73 360 7.0 14.0 0.00 0.00 0.00 40 993.5
20260504235837 73 360 9.0 14.0 0.00 0.00 0.00 39 993.5
20260504235326 73 360 10.0 14.0 0.00 0.00 0.00 40 993.6
20260504234836 73 360 6.0 13.0 0.00 0.00 0.00 41 993.5
20260504234348 73 360 9.0 13.0 0.00 0.00 0.00 41 993.6
20260504233834 73 360 9.0 13.0 0.00 0.00 0.00 41 993.7
20260504233325 73 360 7.0 17.0 0.00 0.00 0.00 41 993.6
20260504232900 73 360 10.0 17.0 0.00 0.00 0.00 42 993.8
20260504232328 73 360 10.0 20.0 0.00 0.00 0.00 43 994.0
20260504231836 73 360 11.0 21.0 0.00 0.00 0.00 43 994.0
20260504231325 73 360 13.0 23.0 0.00 0.00 0.00 43 994.1
20260504230832 73 360 15.0 23.0 0.00 0.00 0.00 42 994.3
20260504230322 73 360 13.0 20.0 0.00 0.00 0.00 42 994.3
20260504225829 74 360 9.0 18.0 0.00 0.00 0.00 41 994.5
20260504225339 74 360 12.0 20.0 0.00 0.00 0.00 39 994.3
20260504224828 75 360 11.0 30.0 0.00 0.00 0.00 38 994.5
20260504224340 77 360 15.0 30.0 0.00 0.00 0.00 34 994.5
20260504223829 78 360 13.0 26.0 0.00 0.00 0.00 34 994.3
20260504223339 78 360 10.0 17.0 0.00 0.00 0.00 35 994.3
20260504222829 77 360 12.0 15.0 0.00 0.00 0.00 34 994.3
20260504222339 77 360 9.0 21.0 0.00 0.00 0.00 34 994.2
20260504221850 77 360 11.0 25.0 0.00 0.00 0.00 33 994.3
20260504221341 78 360 17.0 25.0 0.00 0.00 0.00 32 994.4
20260504220826 79 360 10.0 29.0 0.00 0.00 0.00 32 994.4
20260504220336 79 360 15.0 29.0 0.00 0.00 0.00 30 994.3
20260504215826 80 360 15.0 23.0 0.00 0.00 0.00 31 994.2
20260504215402 79 360 17.0 26.0 0.00 0.00 0.00 30 994.3
20260504214829 79 360 17.0 26.0 0.00 0.00 0.00 30 994.4
20260504214341 79 360 15.0 20.0 0.00 0.00 0.00 29 994.4
20260504213850 80 360 11.0 26.0 0.00 0.00 0.00 29 994.6
20260504213339 80 360 19.0 26.0 0.00 0.00 0.00 29 994.5
20260504212829 79 360 11.0 21.0 0.00 0.00 0.00 30 994.6
20260504212332 79 360 16.0 21.0 0.00 0.00 0.00 28 994.7
20260504211821 79 360 16.0 21.0 0.00 0.00 0.00 28 994.7
20260504211334 79 360 12.0 19.0 0.00 0.00 0.00 28 994.8
20260504210823 78 360 12.0 19.0 0.00 0.00 0.00 28 994.9
20260504210333 79 360 9.0 22.0 0.00 0.00 0.00 28 994.9
20260504205824 79 360 16.0 23.0 0.00 0.00 0.00 28 995.0
20260504205334 79 360 14.0 24.0 0.00 0.00 0.00 27 995.0
20260504204822 79 360 12.0 24.0 0.00 0.00 0.00 28 995.1
20260504204335 79 360 16.0 24.0 0.00 0.00 0.00 28 995.0
20260504203842 79 193 18.0 24.0 0.00 0.00 0.00 28 995.2
20260504203331 79 360 12.0 30.0 0.00 0.00 0.00 29 995.2
20260504202908 79 360 12.0 30.0 0.00 0.00 0.00 29 995.3
20260504202356 79 360 11.0 19.0 0.00 0.00 0.00 30 995.3
20260504201824 78 360 13.0 29.0 0.00 0.00 0.00 28 995.3
20260504201337 78 360 21.0 29.0 0.00 0.00 0.00 27 995.3
20260504200824 78 360 12.0 22.0 0.00 0.00 0.00 28 995.4
20260504200331 78 360 12.0 24.0 0.00 0.00 0.00 28 995.6
20260504195839 78 360 9.0 29.0 0.00 0.00 0.00 28 995.7
20260504195326 78 360 19.0 29.0 0.00 0.00 0.00 27 995.7
20260504194835 78 360 12.0 26.0 0.00 0.00 0.00 28 995.8
20260504194327 78 360 20.0 26.0 0.00 0.00 0.00 28 995.9
20260504193831 78 360 15.0 23.0 0.00 0.00 0.00 26 996.1
20260504193341 78 360 12.0 23.0 0.00 0.00 0.00 28 996.1
20260504192850 77 360 15.0 23.0 0.00 0.00 0.00 29 996.2
20260504192338 77 360 17.0 24.0 0.00 0.00 0.00 29 996.2
20260504191825 77 360 7.0 24.0 0.00 0.00 0.00 31 996.3
20260504191335 77 360 12.0 27.0 0.00 0.00 0.00 31 996.2
20260504190843 77 360 19.0 27.0 0.00 0.00 0.00 30 996.4
20260504190400 77 360 17.0 27.0 0.00 0.00 0.00 29 996.3
20260504185826 77 360 14.0 24.0 0.00 0.00 0.00 31 996.2
20260504185402 76 360 18.0 26.0 0.00 0.00 0.00 30 996.1
20260504184828 76 360 14.0 28.0 0.00 0.00 0.00 32 996.3
20260504184339 76 360 19.0 28.0 0.00 0.00 0.00 30 996.4
20260504183827 76 360 15.0 26.0 0.00 0.00 0.00 30 996.4
20260504183336 76 360 16.0 27.0 0.00 0.00 0.00 31 996.4
20260504182847 76 360 16.0 27.0 0.00 0.00 0.00 30 996.5
20260504182331 76 360 19.0 26.0 0.00 0.00 0.00 31 996.4
20260504181833 76 360 17.0 24.0 0.00 0.00 0.00 31 996.5
20260504181325 75 360 12.0 25.0 0.00 0.00 0.00 32 996.5
20260504180831 75 360 14.0 26.0 0.00 0.00 0.00 30 996.6
20260504180339 75 360 17.0 27.0 0.00 0.00 0.00 32 996.7
20260504175827 75 360 20.0 27.0 0.00 0.00 0.00 32 996.7
20260504175337 75 360 19.0 26.0 0.00 0.01 0.00 34 996.7
20260504174825 74 360 14.0 30.0 0.00 0.01 0.00 32 996.7
20260504174343 74 360 18.0 30.0 0.00 0.01 0.00 31 996.8
20260504173830 74 360 19.0 27.0 0.00 0.01 0.00 34 996.9
20260504173339 74 360 18.0 27.0 0.00 0.01 0.00 33 996.9
20260504172828 74 360 15.0 25.0 0.00 0.01 0.00 33 997.0
20260504172336 74 360 16.0 27.0 0.00 0.01 0.00 32 997.1
20260504171825 74 360 22.0 27.0 0.00 0.01 0.00 32 997.2
20260504171336 74 360 16.0 22.0 0.00 0.01 0.00 32 997.3
20260504170822 73 360 14.0 21.0 0.00 0.01 0.00 36 997.4
20260504170331 73 360 11.0 26.0 0.00 0.01 0.00 35 997.6
20260504160332 71 360 12.0 22.0 0.00 0.01 0.00 39 998.2